SCP
0 0 0 0 0 0 0 0 0 0 0 1 1 1 1 2 2 3 3 4 5 5 5 5 8 10 11 10 9 8 8 7 6 5 5 4 4 4 4 3 3 4 4 4
0 0 0 0 0 0 0 0 0 0 1 1 1 1 1 1 2 2 3 3 4 4 4 4 6 10 11 10 9 9 8 7 6 5 5 4 4 4 4 4 3 4 3 3
0 0 0 0 0 0 0 0 0 0 1 1 1 1 1 1 1 1 2 2 3 3 3 3 4 8 10 11 10 9 8 7 6 5 5 4 4 3 4 3 3 3 3 3
0 0 0 0 0 0 0 0 0 0 1 1 1 1 1 1 1 1 1 2 3 3 3 3 3 6 9 10 10 10 9 8 7 6 5 4 3 3 3 3 3 3 3 3
0 0 0 0 0 0 0 0 0 0 0 0 0 1 1 1 1 1 1 2 2 3 3 3 3 4 7 10 11 10 9 8 7 6 5 4 4 4 4 3 3 2 2 2
0 0 0 0 0 0 0 0 0 0 0 0 0 1 1 1 1 1 1 1 2 2 3 3 3 4 6 9 11 10 9 7 7 6 5 5 4 4 4 3 2 1 1 2
0 0 0 0 0 0 0 0 0 0 0 0 0 1 1 1 1 1 1 1 2 2 3 4 4 4 6 9 10 9 8 7 6 5 5 4 4 4 4 3 1 1 1 1
0 0 0 0 0 0 0 0 0 0 0 0 1 1 1 2 1 1 1 1 2 2 3 3 4 5 6 9 10 9 7 6 5 4 4 3 3 3 2 2 1 1 1 0
0 0 0 0 0 0 0 0 0 0 0 0 1 1 1 2 2 1 1 1 2 2 2 2 3 5 7 9 9 8 6 5 4 3 2 1 1 1 1 1 1 0 0 0
0 0 0 0 0 0 0 0 0 0 0 0 0 1 1 1 1 1 1 1 1 1 1 2 3 5 7 8 8 7 5 4 2 1 1 0 0 0 0 0 0 0 0 0
0 0 0 0 0 0 0 0 0 0 0 0 0 1 1 1 1 1 1 1 1 1 1 1 3 4 6 8 8 6 4 2 1 1 0 0 0 0 0 0 0 0 0 0
0 0 0 0 0 0 0 0 0 0 0 0 0 1 1 1 1 1 1 1 1 1 1 1 3 4 6 6 6 4 2 1 1 0 0 0 0 0 0 0 0 0 0 0
0 0 0 0 0 0 0 0 0 0 0 0 0 1 1 1 1 1 1 1 1 1 1 1 3 4 4 4 3 2 1 0 0 0 0 0 0 0 0 0 0 0 0 0
0 0 0 0 0 0 0 0 0 0 0 0 0 0 1 1 1 1 1 1 0 0 0 1 2 2 2 2 1 1 0 0 0 0 0 0 0 0 0 0 0 0 0 0
0 0 0 0 0 0 0 0 0 0 0 0 0 0 1 1 1 1 0 0 0 0 0 0 1 1 1 0 0 0 0 0 0 0 0 0 0 0 0 0 0 0 0 0
0 0 0 0 0 0 0 0 0 0 0 0 0 0 1 1 1 0 0 0 0 0 0 0 0 0 0 0 0 0 0 0 0 0 0 0 0 0 0 0 0 0 0 0
0 0 0 0 0 0 0 0 0 0 0 0 0 1 1 0 0 0 0 0 0 0 0 0 0 0 0 0 0 0 0 0 0 0 0 0 0 0 0 0 0 0 0 0
0 0 0 0 0 0 0 0 0 0 0 0 0 0 0 0 0 0 0 0 0 0 0 0 0 0 0 0 0 0 0 0 0 0 0 0 0 0 0 0 0 0 0 0
0 0 0 0 0 0 0 0 0 0 0 0 0 0 0 0 0 0 0 0 0 0 0 0 0 0 0 0 0 0 0 0 0 0 0 0 0 0 0 0 0 0 0 0
0 0 0 0 0 0 0 0 0 0 0 0 0 0 0 0 0 1 1 1 1 0 0 0 0 0 0 0 0 0 0 0 0 0 0 0 0 0 0 0 0 0 0 0
0 0 0 0 0 0 0 0 0 0 0 0 0 0 0 0 1 1 1 1 1 0 0 0 0 0 0 0 0 0 0 0 0 0 0 0 0 0 0 0 0 0 0 0
0 0 0 0 0 0 0 0 0 0 0 0 0 0 0 0 1 1 1 1 1 0 0 0 0 0 0 0 0 0 0 0 0 0 0 0 0 0 0 0 0 0 0 0
0 0 0 0 0 0 0 0 0 0 0 0 0 0 0 0 0 1 1 1 0 0 0 0 0 0 0 0 0 0 0 0 0 0 0 0 0 0 0 0 0 0 0 0
0 0 0 0 0 0 0 0 0 0 0 0 0 0 0 0 0 0 1 1 0 0 0 0 0 0 0 0 0 0 0 0 0 0 0 0 0 0 0 0 0 0 0 0
0 0 0 0 0 0 0 0 0 0 0 0 0 0 0 0 0 0 0 0 0 0 0 0 0 0 0 0 0 0 0 0 0 0 0 0 0 0 0 0 0 0 0 0
0 0 0 0 0 0 0 0 0 0 0 0 0 0 0 0 0 0 0 0 0 0 0 0 0 0 0 0 0 0 0 0 0 0 0 0 0 0 0 0 0 0 0 0
Wind_Speed
6 9 6 3 3 5 4 5 4 2 3 3 4 5 4 4 4 5 5 6 7 8 8 8 7 6 5 5 3 3 2 3 3 3 3 3 2 2 2 1 1 1 2 2
8 7 2 2 3 5 6 7 5 4 4 3 5 5 5 4 4 4 5 5 6 7 8 8 8 7 6 5 4 3 3 2 2 2 2 2 2 2 2 2 3 2 2 2
7 1 1 5 6 7 7 7 4 4 5 6 7 6 6 6 5 5 5 5 6 7 7 7 8 8 8 7 5 4 4 3 2 2 3 3 3 3 2 3 3 4 4 3
6 2 4 7 6 7 6 3 5 7 9 7 9 7 8 8 7 5 5 5 6 6 7 8 8 8 8 8 7 6 6 5 3 2 3 5 3 3 3 3 4 5 6 5
4 4 6 6 3 5 4 2 5 8 10 7 9 9 6 9 7 6 6 5 5 7 7 8 8 8 8 8 8 7 7 7 5 4 4 5 5 4 5 5 6 6 6 6
4 3 4 3 2 3 2 4 6 8 9 10 8 9 4 5 5 7 7 6 7 7 8 8 8 7 8 8 8 7 7 8 6 5 6 6 6 6 7 6 6 5 5 6
6 6 5 4 5 6 7 7 6 8 9 6 4 6 3 5 3 6 9 8 7 7 7 7 7 7 7 8 8 7 8 8 7 7 7 6 6 7 7 6 6 6 5 6
5 5 5 4 5 4 6 8 7 7 5 2 5 3 6 6 6 8 9 8 7 6 7 7 7 7 7 7 8 8 8 8 7 7 7 6 6 6 6 7 6 6 6 7
3 1 5 2 2 5 6 6 6 9 8 6 3 5 6 6 7 8 9 8 7 6 7 7 7 7 7 8 9 8 8 8 8 8 8 8 8 8 9 9 8 7 7 7
4 3 4 4 5 3 5 4 5 7 6 7 5 5 4 9 7 8 8 8 7 7 7 7 6 7 7 7 8 9 9 9 9 9 8 8 9 9 9 9 10 9 9 9
4 5 4 6 4 3 4 5 6 6 6 7 5 2 5 4 7 9 8 8 7 7 7 6 6 6 7 7 8 8 9 9 9 10 9 10 10 10 10 9 10 9 9 9
3 5 3 2 2 2 4 4 5 6 6 7 6 4 6 3 6 9 10 9 8 8 7 7 6 6 7 8 8 9 9 9 9 10 10 10 10 10 10 10 10 9 9 9
4 5 5 6 7 6 3 2 4 5 5 5 6 4 6 7 7 9 10 9 8 8 8 7 7 7 7 8 8 9 9 9 9 10 10 10 10 10 10 10 9 9 9 9
4 5 6 4 2 1 3 3 4 6 5 5 4 2 6 7 8 8 9 9 9 8 8 7 7 7 7 8 8 9 9 9 9 9 10 10 9 9 9 9 8 8 8 8
5 4 2 0 0 2 2 2 3 4 5 6 3 1 4 7 8 9 9 10 10 9 9 8 8 8 8 8 8 9 9 8 8 9 10 9 9 8 9 9 8 8 7 7
3 3 4 3 3 3 3 2 2 2 3 2 1 3 6 8 9 9 9 10 10 9 10 9 9 9 8 8 8 8 8 8 7 8 8 8 8 8 8 8 7 7 7 7
5 5 5 4 4 5 4 1 2 1 1 2 3 5 9 9 9 9 9 9 9 10 10 9 9 8 8 8 8 8 8 7 8 8 8 7 7 7 7 7 7 7 7 6
4 5 4 3 4 5 5 3 0 0 1 2 4 7 7 8 8 7 7 9 10 10 10 9 9 9 8 8 8 7 7 7 7 7 7 7 6 7 6 6 7 6 6 6
3 4 4 4 4 1 5 3 2 2 1 3 6 9 10 11 10 7 6 8 9 10 9 9 9 9 9 8 8 7 7 7 7 7 6 6 6 6 6 6 6 5 5 5
4 5 5 4 4 1 5 5 1 3 3 6 8 10 10 10 5 6 8 9 10 10 10 10 10 9 9 8 7 7 7 7 7 6 6 6 6 6 6 6 5 5 4 5
7 6 6 5 4 3 6 3 4 4 5 8 8 9 9 4 6 12 12 11 11 11 11 11 10 9 8 7 7 7 7 7 6 6 5 6 6 5 5 5 4 4 4 5
4 4 3 3 3 4 5 3 1 6 8 9 9 9 10 12 14 14 13 12 12 12 12 11 10 9 8 7 7 7 7 6 6 5 6 6 5 4 5 4 4 4 3 3
2 3 2 3 5 7 4 6 6 7 10 10 11 12 14 14 14 14 13 12 12 12 11 10 10 9 8 6 6 7 6 5 5 5 6 6 5 4 4 3 4 3 2 2
5 1 3 5 6 7 7 8 8 9 11 12 13 14 15 15 15 14 12 12 11 11 10 9 10 9 8 6 6 6 6 5 5 6 5 5 5 4 4 2 3 3 3 3
5 6 4 5 8 8 7 9 11 12 14 14 14 14 14 16 15 14 12 12 11 11 10 9 9 9 9 7 6 6 6 5 5 5 5 4 5 5 4 5 5 5 7 7
5 5 4 3 10 8 11 11 14 15 15 15 16 15 14 14 15 14 12 12 11 11 10 9 9 9 9 8 7 6 5 5 5 5 4 3 3 3 3 5 6 6 5 4
Wind_Direction
198 224 217 210 259 300 272 258 237 187 141 179 147 131 113 97 95 93 85 80 78 71 57 50 49 51 61 62 71 92 107 126 153 160 167 165 163 145 117 95 109 153 166 168
208 215 219 248 240 247 244 243 218 169 157 183 148 137 122 98 92 90 91 83 78 73 63 53 52 50 51 53 51 58 62 82 140 153 155 154 136 122 106 86 68 73 87 100
238 90 152 227 222 235 240 248 245 195 169 191 185 178 167 139 119 108 96 87 77 70 62 56 51 47 44 40 36 46 50 55 78 118 125 123 113 98 84 83 72 60 67 75
237 204 220 237 238 250 247 242 237 213 216 205 223 227 170 167 153 136 115 95 83 75 65 55 48 46 44 41 40 45 48 50 58 88 116 123 119 110 89 79 75 72 67 69
208 210 236 246 252 255 293 288 234 229 244 239 222 253 161 171 178 162 138 116 92 76 66 60 52 47 47 46 45 47 51 50 51 62 95 110 101 98 94 90 86 78 70 64
247 224 258 275 263 231 228 216 218 231 237 239 228 245 187 170 190 158 142 126 101 87 76 67 62 56 51 52 53 51 54 51 49 63 77 90 103 105 105 99 92 84 76 65
210 199 188 218 224 191 218 236 229 218 221 230 175 237 78 86 98 144 144 128 110 98 86 74 63 56 54 53 55 55 57 55 53 64 77 87 99 103 99 96 92 87 78 69
230 195 166 199 251 254 232 261 275 280 269 201 177 216 88 80 87 111 121 119 112 98 84 71 63 60 60 59 56 57 57 58 58 67 72 79 86 88 86 85 86 84 80 74
255 157 130 171 245 266 240 249 300 285 277 268 194 133 127 120 121 125 126 124 113 99 86 74 67 64 63 62 57 55 60 61 59 66 73 74 75 78 83 83 79 77 78 81
266 248 158 161 203 193 294 293 259 264 278 271 226 201 171 163 163 151 144 134 122 108 91 75 67 65 64 68 68 65 64 65 63 65 70 76 75 76 78 78 77 77 77 76
243 243 182 193 234 245 213 229 262 274 287 286 275 107 57 146 166 160 146 135 132 119 103 91 81 73 74 76 74 72 70 68 68 68 71 77 78 79 80 79 79 79 78 77
213 259 231 178 91 316 280 285 271 278 276 274 290 86 61 84 135 141 137 131 125 119 111 104 97 88 80 76 74 71 71 72 72 73 72 72 75 75 75 76 75 76 75 74
179 228 224 187 180 186 218 237 266 278 279 277 280 101 88 99 115 126 132 133 129 126 117 111 105 96 88 85 83 80 76 74 74 76 75 72 71 72 73 74 74 75 74 72
238 245 273 302 12 145 209 218 253 272 282 287 297 102 132 126 128 130 135 136 133 131 123 116 109 102 97 95 95 93 86 81 78 78 77 73 70 73 75 74 71 72 72 72
237 232 235 295 15 245 253 252 258 284 306 308 341 45 126 145 142 138 136 138 137 135 131 124 117 114 112 107 102 97 94 89 86 84 81 78 76 75 75 74 73 73 73 74
218 223 193 192 190 208 221 226 241 283 302 306 290 84 97 120 126 133 140 144 145 140 134 132 127 125 122 118 114 108 103 99 95 89 87 86 83 79 77 76 77 76 74 72
190 208 227 206 186 228 218 203 241 243 344 319 334 94 131 136 142 147 152 151 147 141 140 139 133 129 127 124 119 115 110 105 99 94 94 92 88 84 81 81 79 78 79 79
198 218 241 219 215 244 79 71 357 314 86 62 89 119 135 130 126 127 140 145 144 144 145 142 136 129 124 122 121 119 115 111 104 100 97 95 93 91 87 82 81 81 80 81
214 222 243 247 241 205 133 157 188 248 125 116 126 125 119 121 119 109 117 131 138 141 139 133 129 127 127 127 129 127 118 114 110 105 102 98 95 93 89 84 83 85 87 87
181 228 245 248 277 308 102 113 126 255 168 132 139 143 145 163 166 131 131 129 128 128 127 125 125 126 128 131 134 128 121 115 109 105 101 95 90 88 85 85 87 89 93 92
188 207 237 256 266 87 94 125 209 261 84 132 143 148 156 147 83 118 129 126 125 126 126 127 128 129 129 134 132 122 116 109 104 99 95 93 93 94 91 91 91 95 93 87
218 209 213 250 263 96 108 174 331 69 109 130 134 134 119 106 110 120 124 126 128 128 128 129 127 126 128 133 130 120 113 112 108 98 95 95 91 85 91 94 95 95 98 111
252 355 11 22 51 80 83 77 85 113 124 128 128 125 124 124 126 126 127 129 131 130 130 132 130 126 126 127 126 120 120 120 113 104 95 91 88 82 84 97 107 113 114 93
139 138 141 126 112 116 111 111 109 114 121 125 126 128 131 129 129 129 129 129 130 129 131 134 133 131 129 131 128 122 125 125 120 109 103 102 99 95 88 77 82 76 69 71
133 169 163 131 130 132 131 125 120 116 119 121 123 128 131 131 132 132 131 131 131 130 134 137 136 134 134 134 130 127 127 129 120 116 114 109 99 91 93 79 48 40 55 34
163 175 201 155 160 154 140 136 133 129 129 130 130 129 133 133 133 133 132 132 133 135 137 138 136 133 132 135 131 128 127 129 128 128 124 116 110 103 106 116 116 68 56 82